FW7734 Weather Reports


Display with metric or nautical units.
time (UTC)temp
F
wind
direction
speed
MPH
gust
MPH
rain 1hr
in
rain 24hr
in
rain mn
in
humidity
%
barometer
mb
20260506123558 54 89 0.0 0.0 0.12 0.17 0.17 99 1009.1
20260506123057 54 88 0.0 0.0 0.12 0.16 0.16 99 1009.0
20260506122553 54 89 0.0 0.0 0.05 0.15 0.15 99 1008.9
20260506122051 54 93 0.0 0.0 0.07 0.14 0.14 99 1009.0
20260506121549 54 93 0.0 0.0 0.07 0.14 0.14 99 1009.2
20260506121044 54 93 0.0 0.0 0.05 0.13 0.13 99 1009.1
20260506120543 54 93 0.0 0.0 0.05 0.13 0.13 99 1009.1
20260506120040 54 94 0.0 0.0 0.00 0.12 0.12 99 1009.4
20260506115538 54 87 0.0 0.0 0.07 0.12 0.12 99 1009.2
20260506115036 54 87 0.0 0.0 0.07 0.12 0.12 99 1009.3
20260506114533 54 87 0.0 0.0 0.07 0.11 0.11 99 1009.4
20260506114032 53 83 0.0 0.0 0.07 0.11 0.11 99 1009.4
20260506113529 53 101 0.0 0.0 0.05 0.10 0.10 99 1009.0
20260506113026 53 80 0.0 0.0 0.12 0.10 0.10 99 1009.2
20260506112522 53 91 0.0 0.0 0.07 0.09 0.09 99 1009.2
20260506112020 53 94 0.0 0.0 0.05 0.08 0.08 99 1009.1
20260506111518 53 94 0.0 0.0 0.12 0.08 0.08 99 1009.0
20260506111015 53 112 0.0 0.0 0.12 0.07 0.07 99 1009.2
20260506110512 53 88 0.0 0.0 0.05 0.06 0.06 99 1009.3
20260506110009 53 78 0.0 0.0 0.07 0.05 0.05 99 1009.4
20260506105505 53 77 0.0 0.0 0.07 0.05 0.05 99 1009.4
20260506105003 53 77 0.0 0.0 0.05 0.04 0.04 99 1009.3
20260506104501 53 77 0.0 0.0 0.05 0.04 0.04 99 1009.3
20260506103959 53 72 0.0 0.0 0.00 0.03 0.03 99 1009.3
20260506103455 53 79 0.0 0.0 0.07 0.03 0.03 99 1009.2
20260506102952 53 79 0.0 0.0 0.07 0.03 0.03 99 1009.1
20260506102450 53 78 0.0 0.0 0.00 0.02 0.02 99 1009.2
20260506101947 53 77 0.0 0.0 0.00 0.02 0.02 99 1009.0
20260506101444 53 75 0.0 0.0 0.05 0.02 0.02 99 1008.9
20260506100941 53 60 0.0 0.0 0.05 0.02 0.02 99 1008.8
20260506100439 53 69 0.0 0.0 0.00 0.01 0.01 99 1008.9
20260506095937 53 78 0.0 0.0 0.00 0.01 0.01 99 1008.7
20260506095435 53 77 0.0 0.0 0.07 0.01 0.01 99 1008.8
20260506094931 53 78 0.0 0.0 0.07 0.01 0.01 99 1008.8
20260506094430 53 78 0.0 0.0 0.00 0.00 0.00 99 1008.8
20260506093927 53 78 0.0 0.0 0.00 0.00 0.00 99 1008.9
20260506093425 53 53 0.0 0.0 0.00 0.00 0.00 99 1008.8
20260506092923 53 32 0.0 0.0 0.00 0.00 0.00 99 1008.7
20260506092420 53 75 0.0 0.0 0.00 0.00 0.00 99 1008.9
20260506091916 53 80 0.0 0.0 0.00 0.00 0.00 99 1008.7
20260506091415 53 80 0.0 0.0 0.00 0.00 0.00 99 1008.6
20260506090912 53 80 0.0 0.0 0.00 0.00 0.00 99 1008.5
20260506090409 53 80 0.0 0.0 0.00 0.00 0.00 99 1008.6
20260506085906 53 80 0.0 0.0 0.00 0.00 0.00 99 1008.7
20260506085403 53 80 0.0 0.0 0.00 0.00 0.00 99 1008.7
20260506084859 53 60 1.0 1.0 0.00 0.00 0.00 99 1008.7
20260506084355 53 80 0.0 0.0 0.00 0.00 0.00 99 1009.0
20260506083852 53 80 0.0 0.0 0.00 0.00 0.00 99 1008.8
20260506083350 53 80 0.0 0.0 0.00 0.00 0.00 99 1008.9
20260506082847 53 77 0.0 1.0 0.00 0.00 0.00 99 1009.1
20260506082344 53 70 1.0 1.0 0.00 0.00 0.00 99 1008.9
20260506081839 53 79 1.0 1.0 0.00 0.00 0.00 99 1008.6
20260506081338 53 79 0.0 0.0 0.00 0.00 0.00 99 1008.7
20260506080835 53 79 0.0 0.0 0.00 0.00 0.00 99 1008.6
20260506080331 53 69 1.0 1.0 0.00 0.00 0.00 99 1008.6
20260506073315 53 82 0.0 0.0 0.00 0.00 0.00 99 1008.8
20260506072812 53 77 0.0 0.0 0.00 0.00 0.00 99 1008.9
20260506072309 53 83 1.0 2.0 0.00 0.00 0.00 99 1009.0
20260506071807 53 84 0.0 1.0 0.00 0.00 0.00 99 1008.9
20260506071306 52 109 0.0 0.0 0.00 0.00 0.00 99 1008.9
20260506070802 53 93 1.0 3.0 0.00 0.00 0.00 99 1009.0
20260506070259 53 82 0.0 0.0 0.00 0.00 0.00 99 1009.0
20260506062236 52 78 0.0 0.0 0.00 0.00 0.00 99 1009.3
20260506061731 53 54 1.0 1.0 0.00 0.00 0.00 99 1009.3
20260506061230 53 79 0.0 1.0 0.00 0.00 0.00 99 1009.4
20260506060728 53 78 1.0 2.0 0.00 0.00 0.00 99 1009.7
20260506060225 53 88 1.0 1.0 0.00 0.00 0.00 99 1009.8
20260506051156 54 64 1.0 1.0 0.00 0.00 0.00 99 1010.4
20260506050654 54 14 1.0 2.0 0.00 0.00 0.00 99 1010.2
20260506050146 53 72 1.0 1.0 0.00 0.00 0.00 99 1010.1
20260506044637 55 40 1.0 2.0 0.00 0.00 0.00 99 1010.1
20260506044134 54 35 2.0 2.0 0.00 0.00 0.00 99 1010.3
20260506043631 55 63 1.0 1.0 0.00 0.00 0.00 99 1010.4
20260506043129 55 62 1.0 1.0 0.00 0.00 0.00 99 1010.3
20260506042628 55 90 0.0 0.0 0.00 0.00 0.00 99 1010.4
20260506042125 55 67 0.0 1.0 0.00 0.00 0.00 99 1010.6
20260506041624 55 13 2.0 2.0 0.00 0.00 0.00 99 1010.4
20260506041120 55 3 3.0 3.0 0.00 0.00 0.00 99 1010.6
20260506040618 55 67 1.0 1.0 0.00 0.00 0.00 99 1010.7
20260506040115 55 70 0.0 0.0 0.00 0.06 0.06 98 1010.6
20260506035611 55 70 0.0 1.0 0.00 0.06 0.06 98 1010.6
20260506035108 55 17 2.0 2.0 0.00 0.06 0.06 98 1010.7
20260506034605 55 32 2.0 2.0 0.00 0.06 0.06 98 1010.5
20260506034102 55 68 1.0 1.0 0.00 0.06 0.06 99 1010.4
20260506033559 55 77 0.0 0.0 0.00 0.06 0.06 98 1010.6
20260506033056 55 66 1.0 1.0 0.00 0.06 0.06 98 1010.5
20260506032553 55 60 1.0 1.0 0.00 0.06 0.06 99 1010.4
20260506032050 55 57 1.0 1.0 0.00 0.06 0.06 98 1010.6
20260506031548 55 53 2.0 2.0 0.00 0.06 0.06 98 1010.4
20260506031044 55 80 1.0 1.0 0.00 0.06 0.06 98 1010.4
20260506030543 55 72 2.0 2.0 0.00 0.06 0.06 98 1010.2
20260506030040 56 113 1.0 1.0 0.00 0.06 0.06 97 1010.2
20260506025537 56 56 1.0 1.0 0.00 0.06 0.06 98 1010.4
20260506025033 56 57 1.0 1.0 0.00 0.06 0.06 98 1010.0
20260506024530 56 48 1.0 1.0 0.00 0.06 0.06 97 1010.2
20260506024026 56 41 2.0 2.0 0.00 0.06 0.06 98 1010.1
20260506023522 57 6 2.0 2.0 0.00 0.06 0.06 97 1010.1
20260506023020 57 55 1.0 1.0 0.00 0.06 0.06 97 1010.0
20260506022517 57 24 2.0 2.0 0.00 0.06 0.06 97 1010.1
20260506022015 57 60 1.0 2.0 0.00 0.06 0.06 97 1010.1
20260506021512 57 60 1.0 2.0 0.00 0.06 0.06 97 1010.1
20260506021009 57 68 1.0 1.0 0.00 0.06 0.06 97 1009.8
20260506020507 57 59 1.0 1.0 0.00 0.06 0.06 97 1009.8
20260506020004 58 71 0.0 1.0 0.00 0.06 0.06 96 1010.0
20260506015501 58 70 1.0 1.0 0.00 0.06 0.06 96 1010.0
20260506014958 58 71 0.0 0.0 0.00 0.06 0.06 96 1009.8
20260506014455 58 71 0.0 0.0 0.00 0.06 0.06 96 1010.0
20260506013951 58 71 1.0 3.0 0.00 0.06 0.06 96 1009.9
20260506013449 58 71 0.0 0.0 0.00 0.06 0.06 96 1010.0
20260506012945 58 69 1.0 2.0 0.00 0.06 0.06 96 1009.7
20260506012442 58 66 2.0 3.0 0.00 0.06 0.06 96 1009.8
20260506011939 59 80 0.0 0.0 0.00 0.06 0.06 96 1009.8
20260506011436 59 80 0.0 0.0 0.00 0.06 0.06 95 1009.7
20260506010933 59 80 0.0 0.0 0.00 0.06 0.06 95 1009.5
20260506010432 59 75 2.0 2.0 0.00 0.06 0.06 95 1009.5
20260506005927 60 82 0.0 0.0 0.00 0.06 0.06 95 1009.5
20260506005426 60 72 0.0 0.0 0.00 0.06 0.06 94 1009.6
20260506004920 60 72 0.0 0.0 0.00 0.06 0.06 94 1009.4
20260506004419 60 72 0.0 0.0 0.00 0.06 0.06 94 1009.2
20260506003914 60 72 2.0 2.0 0.00 0.06 0.06 94 1009.3
20260506003411 60 72 0.0 0.0 0.00 0.06 0.06 94 1009.3
20260506002908 60 68 3.0 3.0 0.00 0.06 0.06 94 1009.4
20260506002404 60 68 3.0 3.0 0.00 0.06 0.06 94 1009.2
20260506001859 61 73 3.0 3.0 0.00 0.06 0.06 94 1009.4
20260506001356 61 72 0.0 0.0 0.00 0.06 0.06 93 1009.3
20260506000854 61 74 2.0 2.0 0.00 0.06 0.06 93 1009.2
20260506000353 61 75 2.0 5.0 0.00 0.06 0.06 93 1009.5
20260505235848 61 66 2.0 2.0 0.00 0.06 0.06 93 1009.3
20260505235345 62 61 2.0 3.0 0.00 0.06 0.06 92 1009.5
20260505234842 62 78 1.0 1.0 0.00 0.06 0.06 92 1009.4
20260505234340 62 78 0.0 0.0 0.00 0.06 0.06 92 1009.2
20260505233836 62 78 1.0 1.0 0.00 0.06 0.06 91 1009.0
20260505233335 62 78 2.0 2.0 0.00 0.06 0.06 91 1009.3
20260505232832 63 78 0.0 0.0 0.00 0.06 0.06 90 1009.4
20260505232330 63 78 0.0 0.0 0.00 0.06 0.06 90 1009.4
20260505231825 63 78 0.0 0.0 0.00 0.06 0.06 89 1009.2
20260505231324 63 78 0.0 1.0 0.00 0.06 0.06 89 1009.0
20260505230822 63 78 2.0 2.0 0.00 0.06 0.06 88 1009.0
20260505230318 64 79 1.0 2.0 0.00 0.06 0.06 87 1009.0
20260505225815 64 97 0.0 0.0 0.00 0.06 0.06 86 1009.0
20260505225313 64 97 0.0 0.0 0.00 0.06 0.06 85 1009.0
20260505224807 65 95 2.0 2.0 0.00 0.06 0.06 84 1008.8
20260505224306 65 48 3.0 5.0 0.00 0.06 0.06 81 1008.9
20260505223803 65 53 3.0 5.0 0.00 0.06 0.06 80 1008.8
20260505223300 65 39 3.0 5.0 0.00 0.06 0.06 83 1008.8
20260505222755 65 3 4.0 5.0 0.00 0.06 0.06 87 1008.7
20260505222251 66 12 3.0 3.0 0.00 0.06 0.06 84 1008.3
20260505221749 65 68 2.0 3.0 0.00 0.06 0.06 76 1008.1
20260505221245 64 27 2.0 2.0 0.00 0.06 0.06 84 1008.3
20260505220742 65 57 3.0 3.0 0.00 0.06 0.06 86 1008.0
20260505220239 66 31 3.0 3.0 0.00 0.06 0.06 86 1008.1
20260505215737 66 74 2.0 3.0 0.00 0.06 0.06 81 1008.1
20260505215235 66 49 3.0 5.0 0.00 0.06 0.06 80 1008.2
20260505214733 66 116 3.0 3.0 0.00 0.06 0.06 80 1008.3
20260505214230 67 151 4.0 5.0 0.00 0.06 0.06 80 1008.3
20260505213727 67 165 3.0 5.0 0.00 0.06 0.06 79 1008.4
20260505213224 66 135 2.0 3.0 0.00 0.06 0.06 77 1008.5
20260505212720 65 60 3.0 3.0 0.00 0.06 0.06 79 1008.6
20260505212218 64 36 2.0 2.0 0.00 0.06 0.06 83 1008.7
20260505211714 65 339 4.0 6.0 0.00 0.06 0.06 84 1008.1
20260505211211 64 58 2.0 3.0 0.00 0.06 0.06 84 1008.1
20260505210707 65 332 3.0 3.0 0.00 0.06 0.06 89 1008.3
20260505210204 66 47 2.0 2.0 0.00 0.06 0.06 88 1008.0
20260505205657 67 50 3.0 3.0 0.00 0.06 0.06 86 1007.7
20260505205155 68 76 1.0 1.0 0.00 0.06 0.06 76 1008.0
20260505204651 66 75 2.0 2.0 0.00 0.06 0.06 83 1007.8
20260505204149 65 93 0.0 1.0 0.00 0.06 0.06 84 1007.7
20260505203646 65 81 1.0 1.0 0.00 0.06 0.06 84 1008.0
20260505203143 67 93 3.0 3.0 0.12 0.06 0.06 77 1007.8
20260505202638 67 190 4.0 6.0 0.12 0.06 0.06 68 1008.1
20260505202134 66 272 5.0 6.0 0.19 0.04 0.04 74 1008.2
20260505201631 69 73 3.0 3.0 0.24 0.04 0.04 67 1007.7
20260505201129 74 106 3.0 6.0 0.05 0.01 0.01 54 1007.8
20260505200627 75 143 1.0 2.0 0.00 0.00 0.00 44 1007.7
20260505200124 75 56 3.0 5.0 0.00 0.00 0.00 44 1007.3
20260505195620 75 178 6.0 8.0 0.00 0.00 0.00 44 1007.2
20260505195117 75 143 6.0 9.0 0.00 0.00 0.00 44 1007.2
20260505194614 75 108 6.0 7.0 0.00 0.00 0.00 44 1007.1
20260505194109 75 97 3.0 3.0 0.00 0.00 0.00 45 1007.0
20260505193607 75 156 7.0 9.0 0.00 0.00 0.00 45 1007.3
20260505193104 76 129 4.0 7.0 0.00 0.00 0.00 45 1007.2
20260505192602 76 116 10.0 11.0 0.00 0.00 0.00 44 1007.1
20260505192059 78 192 6.0 7.0 0.00 0.00 0.00 45 1007.3
20260505191558 79 160 15.0 18.0 0.00 0.00 0.00 44 1007.3
20260505191055 77 210 9.0 10.0 0.00 0.00 0.00 44 1007.4
20260505190550 77 152 9.0 13.0 0.00 0.00 0.00 44 1007.5
20260505190046 78 116 8.0 10.0 0.00 0.00 0.00 44 1007.6
20260505185543 78 215 11.0 14.0 0.00 0.00 0.00 42 1007.6
20260505185039 76 96 4.0 5.0 0.00 0.00 0.00 44 1007.8
20260505184536 75 114 6.0 7.0 0.00 0.00 0.00 45 1007.8
20260505184033 76 114 7.0 9.0 0.00 0.00 0.00 44 1007.8
20260505183530 77 99 6.0 9.0 0.00 0.00 0.00 43 1007.8
20260505183028 76 148 4.0 5.0 0.00 0.00 0.00 45 1007.8
20260505182524 77 182 7.0 9.0 0.00 0.00 0.00 43 1008.1
20260505182020 77 217 9.0 13.0 0.00 0.00 0.00 44 1008.1
20260505181511 77 189 9.0 14.0 0.00 0.00 0.00 43 1008.0
20260505181008 78 122 5.0 8.0 0.00 0.00 0.00 44 1008.2
20260505180504 77 64 3.0 5.0 0.00 0.00 0.00 44 1008.3
20260505180002 77 122 9.0 10.0 0.00 0.00 0.00 42 1008.4
20260505175457 78 343 7.0 13.0 0.00 0.00 0.00 41 1008.7
20260505174954 78 91 2.0 2.0 0.00 0.00 0.00 41 1008.8
20260505174451 77 193 4.0 6.0 0.00 0.00 0.00 42 1008.9
20260505173947 78 119 11.0 14.0 0.00 0.00 0.00 42 1008.8
20260505173444 78 191 13.0 21.0 0.00 0.00 0.00 42 1008.9
20260505172941 78 216 5.0 7.0 0.00 0.00 0.00 43 1008.5
20260505172439 78 205 3.0 5.0 0.00 0.00 0.00 43 1008.8
20260505171938 77 121 4.0 7.0 0.00 0.00 0.00 43 1008.6
20260505171436 77 154 7.0 8.0 0.00 0.00 0.00 45 1008.6
20260505170932 77 103 3.0 5.0 0.00 0.00 0.00 45 1008.7
20260505170429 77 180 7.0 9.0 0.00 0.00 0.00 46 1008.8
20260505165924 76 147 10.0 14.0 0.00 0.00 0.00 47 1008.6
20260505165420 77 9 6.0 7.0 0.00 0.00 0.00 46 1008.8
20260505164916 76 147 7.0 9.0 0.00 0.00 0.00 48 1008.6
20260505164413 77 202 4.0 6.0 0.00 0.00 0.00 47 1008.7
20260505163911 76 68 3.0 5.0 0.00 0.00 0.00 48 1009.1
20260505163410 76 115 4.0 8.0 0.00 0.00 0.00 48 1009.3
20260505162908 75 188 4.0 5.0 0.00 0.00 0.00 50 1009.1
20260505162403 75 155 9.0 10.0 0.00 0.00 0.00 49 1009.3
20260505161900 75 134 9.0 10.0 0.00 0.00 0.00 50 1009.5
20260505161357 75 116 5.0 7.0 0.00 0.00 0.00 50 1009.4
20260505160854 74 178 9.0 11.0 0.00 0.00 0.00 51 1009.5
20260505160353 75 156 12.0 16.0 0.00 0.00 0.00 50 1009.1
20260505153331 75 110 3.0 5.0 0.00 0.00 0.00 51 1009.7
20260505152828 74 153 7.0 9.0 0.00 0.00 0.00 52 1009.7
20260505152325 74 105 5.0 8.0 0.00 0.00 0.00 54 1009.7
20260505151819 73 165 9.0 15.0 0.00 0.00 0.00 54 1009.5
20260505151317 73 200 6.0 8.0 0.00 0.00 0.00 53 1009.7
20260505150813 73 169 4.0 6.0 0.00 0.00 0.00 53 1009.9
20260505150310 73 162 6.0 8.0 0.00 0.00 0.00 54 1009.8
20260505140235 69 158 7.0 11.0 0.00 0.00 0.00 59 1010.0
20260505130159 65 144 3.0 3.0 0.00 0.00 0.00 65 1010.3
20260505124649 64 144 3.0 6.0 0.00 0.00 0.00 67 1010.5
20260505124145 64 201 7.0 8.0 0.00 0.00 0.00 67 1010.5